Rbgn^[z[y[W
メイン
   新天体発見情報
     Comet C/2024 C2 (PANSTARRS)
投稿するにはまず登録を

フラット表示 前のトピック | 次のトピック
投稿者 スレッド
佐藤裕久
投稿日時: 2024-2-29 12:41
モデレータ
登録日: 2005-6-12
居住地: 日本
投稿: 2703
オンライン
Comet C/2024 C2 (PANSTARRS)

R. Weryk (西オンタリオ大学,物理および天文学科)の通報によると、2月1日、Haleakalaにある
Pan-STARRS2 1.8-m Ritchey-Chretien反射望遠鏡で得た画像から彗星を発見した。
4枚の45-秒のw-バンドサーベイ画像では、1".4-1".6のシーイングで、2".0 (半値全幅:FWHM)の
集光した頭部が見えるが尾はない。
Werykはさらに、小惑星状の発見前のPan-STARRS2の画像、2023年12月25.54-25.57日UT(21.9-
22.6等)、5.67日(21.3等)、20.7日と21.7(20.5等)、23.42-23.45日(20.5-20.9等)を同定した。
彼はまた、発見前のPan-STARRS1の観測、2024年1月6.58-6.65日(20.8-21.2日)と1月22.5日(20.1-
20.4等)も同定した。
M. Jaeger (Vienna, オーストリア)によると、2月1.85-1.87日UT、E. Prosperi, S. Prosperiと
彼が、Oed, Martinsberg, オーストリアにある0.3-m f/4 反射望遠鏡で得たCCD画像から、20.0等
の強く集光した5"のコマとp.a. 288°に12"の尾が見える。佐藤英貴氏(東京都文京区,2月11.3日, 
120-秒露出8枚のスタック,61-m f/6.5 アストログラフ, Sierra Remote天文台, Auberry近郊, カリ
フォルニア州, 米国, 遠隔操作:強く集光した7"のコマが見えるが尾はない。3".8の円形範囲で測定
した光度は19.5等であった)らCCD観測者によって彗星状と観測された。

彗星機能の報告は次のとおり、

OC   Date        Reporter           Coma    Tail    PA          Exposures
G00  2024-02-01  M. Jaeger          5"       12"    288          14x100s
U69  2024-02-11  H. Sato            7"                            8x120s
204  2024-02-11  A. Aletti          5"                          133x30s

発見位置は次のとおり、

     2024 UT             R.A. (2000) Decl.       Mag.
     Feb.  1.41828    9 51 51.85   +43 21 57.8   20.5
           1.42938    9 51 51.59   +43 21 59.6   20.5
           1.44049    9 51 51.37   +43 22 00.9   20.4
           1.45161    9 51 51.09   +43 22 02.7   20.6
           1.57820    9 51 48.36   +43 22 20.4   20.1

MPCの楕円軌道要素、位置推算表は次のとおり、

Orbital elements:
    C/2024 C2 (PANSTARRS)                                                       
Epoch 2024 Mar. 31.0 TT = JDT 2460400.5                                         
T 2025 Mar. 17.94131 TT                                 Rudenko                 
q   8.9856235            (2000.0)            P               Q                  
n   0.01512995     Peri.   87.89205     -0.79934614     -0.42958233             
a  16.1899115      Node    66.42871     +0.17458446     -0.83507378             
e   0.4449863      Incl.   27.28195     +0.57494870     -0.34367252             
P  65.1                                                                         
From 54 observations 2023 Dec. 25-2024 Feb. 11, mean residual 0".2.             
                                                                                
Ephemeris:
Date    TT    R. A. (2000) Decl.     Delta      r    Elong.  Phase   m1
2024 01 16    09 57 05.1 +42 36 39   8.3045  9.1322   145.5     3.5  20.2
...
2024 01 31    09 52 21.8 +43 18 33   8.2463  9.1222   151.2     3.0  20.2
...
2024 02 08    09 49 28.3 +43 36 12   8.2405  9.1170   151.2     3.0  20.2
...
2024 02 14    09 47 13.5 +43 46 46   8.2479  9.1132   149.6     3.1  20.2
2024 02 15    09 46 50.9 +43 48 18   8.2501  9.1126   149.2     3.2  20.2
2024 02 16    09 46 28.4 +43 49 45   8.2525  9.1119   148.8     3.2  20.2
...
2024 02 22    09 44 14.0 +43 56 57   8.2729  9.1082   145.8     3.5  20.2
...
2024 03 01    09 41 21.6 +44 02 27   8.3143  9.1033   140.8     3.9  20.2
...
2024 03 16    09 36 41.6 +43 59 58   8.4322  9.0943   129.3     4.9  20.2

(MPEC 2024-C178、CBET 5350)

フラット表示 前のトピック | 次のトピック

題名 投稿者 日時
 » Comet C/2024 C2 (PANSTARRS) 佐藤裕久 2024-2-29 12:41

投稿するにはまず登録を
 
© 1999 Tsutomu Seki.